AirNav   ProFlight Series 2 Aviation Headset
 
 1362 users online  

PS06 Snook Airport
Beaver Springs, Pennsylvania, USA

GOING TO BEAVER SPRINGS?


FAA INFORMATION EFFECTIVE 08 OCTOBER 2020

Location

FAA Identifier: PS06
Lat/Long: 40-44-00.2780N 077-15-58.9570W
40-44.004633N 077-15.982617W
40.7334106,-77.2663769
(estimated)
Elevation: 710 ft. / 216 m (estimated)
Variation: 10W (1985)
From city: 3 miles SW of BEAVER SPRINGS, PA
Time zone: UTC -4 (UTC -5 during Standard Time)
Zip code: 17812

Airport Operations

Airport use: Private use. Permission required prior to landing
Activation date: 04/1983
Control tower: no
ARTCC: NEW YORK CENTER
FSS: WILLIAMSPORT FLIGHT SERVICE STATION
Attendance: UNATNDD
Wind indicator: yes
Segmented circle: no

Airport Communications

WX AWOS-3PT at RVL (17 nm W): 123.85 (717-667-3993)
WX ASOS at SEG (19 nm E): 123.975 (570-374-4099)

Nearby radio navigation aids

VOR radial/distance  VOR name  Freq  Var
SEGr267/17.7SELINSGROVE VOR/DME110.4008W
HARr351/27.4HARRISBURG VORTAC112.5010W
RAVr301/32.2RAVINE VORTAC114.6011W
MIPr246/32.3MILTON VORTAC109.2009W
PSBr118/34.8PHILIPSBURG VORTAC115.5010W

 
NDB name  Hdg/Dist  Freq  Var  ID
BELLGROVE309/37.132810WBZJ -... --.. .---

Airport Services

Runway Information

Runway 7/25

Dimensions: 1300 x 100 ft. / 396 x 30 m
Surface: turf
RUNWAY 7  RUNWAY 25
Traffic pattern: leftleft
Obstructions: 106 ft. trees, 1136 ft. from runway76 ft. trees, 876 ft. from runway

Airport Ownership and Management from official FAA records

Ownership: Privately-owned
Owner: HAROLD F. & ILAH T. SNOOK
132 BARNSTORMER LANE
BEAVER SPRINGS, PA 17812
Phone 570-658-7245
Manager: HAROLD F. SNOOK
132 BARNSTORMER LANE
BEAVER SPRINGS, PA 17812
Phone 570-658-7245

Airport Operational Statistics

Aircraft based on the field: 5
Single engine airplanes: 5
    

Additional Remarks

FOR CD CTC NEW YORK ARTCC AT 631-468-1425.

Instrument Procedures

There are no published instrument procedures at PS06.

Some nearby airports with instrument procedures:

P34 - Mifflintown Airport (10 nm SW)
KRVL - Mifflin County Airport (17 nm W)
KSEG - Penn Valley Airport (19 nm E)
KLHV - William T Piper Memorial Airport (25 nm N)
N96 - Bellefonte Airport (27 nm W)
 
Loc | Ops | Rwys | IFR | FBO | Links
Com | Nav | Svcs | Stats | Notes
Area around PS06 (Snook Airport)
 
Road maps at: MapQuest Bing Google
 
Aerial photo
No photo
 
Sectional chart

 
Airport distance calculator
Flying to Snook Airport? Find the distance to fly.

From to PS06

Sunrise and sunset
Times for 27-Oct-2020
 Local
(UTC-4)
 Zulu
(UTC)
Morning civil twilight07:0811:08
Sunrise07:3611:36
Sunset18:1022:10
Evening civil twilight18:3822:38

Current date and time
Zulu (UTC)  27-Oct-2020 21:42:05
Local (UTC-4)  27-Oct-2020 17:42:05
 
METAR
KRVL 
17nm W 
272115Z AUTO 21003KT 10SM SCT060 BKN070 12/07 A3013 RMK AO2
KSEG 
19nm E 
272053Z AUTO 11003KT 10SM OVC070 13/05 A3015 RMK AO2 SLP210 T01280050 55018
KUNV 
27nm W 
272053Z 19003KT 10SM SCT060 BKN075 10/06 A3012
TAF
KUNV 
27nm W 
270320Z 2703/2724 31004KT P6SM VCSH OVC015 FM271100 31006KT P6SM FEW015 SCT035 FM271800 29007KT P6SM SCT030
NOTAMs
Click for the latest NOTAMs
NOTAMs are issued by the DoD/FAA and will open in a separate window not controlled by AirNav.

 

 
 

Would you like to see your business listed on this page?

 If your business provides an interesting product or service to pilots, flight crews, aircraft, or users of the Snook Airport, you should consider listing it here.  To start the listing process, click on the button below
 
Add a business
 

Other Pages about Snook Airport

Update a link
 
Copyright © AirNav, LLC. All rights reserved. Privacy Policy  Contact